sat.trackr.live / text

‹ back to catalog

STARLINK-30437

NORAD 58036 · 2023-156J

PAYLOAD ACTIVE UNKNOWN

§ Identity

Operator
Country
US
Launch date
2023-10-09
Launch site
AFWTR
Launch vehicle
Mass (kg)
RCS (m²)

Purposes: comms

External: N2YO · Heavens-Above · Gunter

§ Orbital elements

Epoch: 2026-09-20T23:17:36.978432Z

Period
94.01 min
Inclination
53.1591°
Eccentricity
0.0001208
Mean motion
15.31704764 rev/d
Perigee alt
469.9 km
Apogee alt
471.6 km
Semi-major
6,848.9 km
B*
3.0576e-5
RAAN
250.6497°
Arg perigee
66.9578°
Mean anomaly
293.1551°
Rev number
16,617

§ Raw data

STARLINK-304371 58036U 23156J   26263.97056688  .00000584  00000+0  30576-4 0  99982 58036  53.1591 250.6497 0001208  66.9578 293.1551 15.31704764166178

JSON: /api/v1/satellites/58036 · /tle

For live sub-satellite position, see the globe view (requires WebGL).

§ Visibility from observer

Set your observer location to see the next 7 days of passes ≥ 10°. The values pass through the URL so the page stays shareable.

No JS? Fill the form by hand. The geolocation button needs JavaScript.